sat.trackr.live / text

‹ back to catalog

MUSAT-2

NORAD 59099 · 2024-043B

PAYLOAD ACTIVE UNKNOWN

§ Identity

Operator
Country
US
Launch date
2024-03-04
Launch site
AFWTR
Launch vehicle
Mass (kg)
RCS (m²)

External: N2YO · Heavens-Above · Gunter

§ Orbital elements

Epoch: 2026-05-24T23:20:26.419200Z

Period
95.47 min
Inclination
97.8575°
Eccentricity
0.0008239
Mean motion
15.08267017 rev/d
Perigee alt
535.8 km
Apogee alt
547.2 km
Semi-major
6,919.6 km
B*
3.7581e-4
RAAN
283.0903°
Arg perigee
61.6900°
Mean anomaly
298.5158°
Rev number
12,159

§ Raw data

MUSAT-21 59099U 24043B   26144.97252800  .00005762  00000+0  37581-3 0  99912 59099  97.8575 283.0903 0008239  61.6900 298.5158 15.08267017121597

JSON: /api/v1/satellites/59099 · /tle

For live sub-satellite position, see the globe view (requires WebGL).

§ Visibility from observer

Set your observer location to see the next 7 days of passes ≥ 10°. The values pass through the URL so the page stays shareable.

No JS? Fill the form by hand. The geolocation button needs JavaScript.

§ Radio — SatNOGS DB

ModeDescriptionDownlinkUplink
OQPSK Mode X - Backup Downlink - 0.5 Mbit/s 8.390 GHz
FM Mode X - EESS Downlink 8.205 GHz
OQPSK Mode X - Primary Downlink - 0.5 Mbit/s 8.385 GHz

3 transmitters · refreshed weekly from db.satnogs.org